TimeEDT,TemperatureF,Dew PointF,Humidity,Sea Level PressureIn,VisibilityMPH,Wind Direction,Wind SpeedMPH,Gust SpeedMPH,PrecipitationIn,Events,Conditions,WindDirDegrees,DateUTC
12:56 AM,69.1,66.9,93,29.82,10.0,North,8.1,-,N/A,,Overcast,360,2013-06-19 04:56:00
1:31 AM,69.8,66.2,88,29.81,10.0,North,5.8,-,N/A,,Overcast,10,2013-06-19 05:31:00
1:56 AM,68.0,66.0,93,29.82,10.0,NNW,6.9,-,N/A,,Overcast,330,2013-06-19 05:56:00
2:56 AM,66.9,64.9,93,29.84,10.0,North,6.9,-,N/A,,Overcast,10,2013-06-19 06:56:00
3:09 AM,68.0,64.4,88,29.83,10.0,North,4.6,-,N/A,,Overcast,10,2013-06-19 07:09:00
3:56 AM,69.1,64.9,87,29.85,10.0,North,6.9,-,N/A,,Overcast,10,2013-06-19 07:56:00
4:56 AM,66.9,64.0,90,29.87,10.0,NNE,9.2,-,N/A,,Overcast,20,2013-06-19 08:56:00
5:56 AM,68.0,64.0,87,29.92,10.0,NNE,8.1,-,N/A,,Mostly Cloudy,30,2013-06-19 09:56:00
6:56 AM,68.0,64.0,87,29.93,10.0,NNE,11.5,-,N/A,,Overcast,30,2013-06-19 10:56:00
7:56 AM,70.0,64.0,81,29.96,10.0,NE,9.2,-,N/A,,Overcast,40,2013-06-19 11:56:00
8:03 AM,69.8,64.4,83,29.96,10.0,NNE,8.1,-,N/A,,Mostly Cloudy,30,2013-06-19 12:03:00
8:56 AM,71.1,64.0,78,29.99,10.0,NE,8.1,-,N/A,,Mostly Cloudy,40,2013-06-19 12:56:00
9:25 AM,71.6,64.4,78,29.99,10.0,NE,15.0,-,N/A,,Mostly Cloudy,40,2013-06-19 13:25:00
9:56 AM,70.0,64.0,81,30.00,10.0,NNE,15.0,19.6,N/A,,Overcast,30,2013-06-19 13:56:00
10:56 AM,71.1,64.0,78,30.03,10.0,NNE,13.8,21.9,N/A,,Mostly Cloudy,30,2013-06-19 14:56:00
11:31 AM,71.6,62.6,73,30.02,10.0,ENE,12.7,18.4,N/A,,Mostly Cloudy,60,2013-06-19 15:31:00
11:56 AM,72.0,63.0,73,30.04,10.0,ENE,13.8,18.4,N/A,,Mostly Cloudy,70,2013-06-19 15:56:00
12:56 PM,73.0,64.0,73,30.06,10.0,ENE,9.2,-,N/A,,Mostly Cloudy,60,2013-06-19 16:56:00
1:56 PM,72.0,64.0,76,30.07,10.0,ENE,12.7,-,N/A,,Overcast,60,2013-06-19 17:56:00
2:56 PM,72.0,64.0,76,30.07,10.0,NNE,11.5,-,N/A,,Mostly Cloudy,30,2013-06-19 18:56:00
3:56 PM,72.0,64.0,76,30.07,10.0,NE,9.2,-,N/A,,Mostly Cloudy,50,2013-06-19 19:56:00
4:56 PM,70.0,62.1,76,30.08,10.0,ENE,9.2,-,N/A,,Overcast,60,2013-06-19 20:56:00
5:56 PM,69.1,62.1,78,30.08,10.0,ENE,8.1,-,N/A,,Overcast,60,2013-06-19 21:56:00
6:56 PM,68.0,62.1,81,30.09,10.0,NE,9.2,-,N/A,,Overcast,50,2013-06-19 22:56:00
7:56 PM,68.0,61.0,78,30.11,10.0,ENE,8.1,-,N/A,,Overcast,70,2013-06-19 23:56:00
8:56 PM,66.9,61.0,81,30.12,10.0,ENE,4.6,-,N/A,,Overcast,70,2013-06-20 00:56:00
9:56 PM,66.0,60.1,81,30.13,10.0,ENE,5.8,-,N/A,,Scattered Clouds,70,2013-06-20 01:56:00
10:56 PM,66.0,61.0,84,30.14,10.0,ENE,5.8,-,N/A,,Mostly Cloudy,60,2013-06-20 02:56:00
11:56 PM,64.9,61.0,87,30.15,10.0,East,6.9,-,N/A,,Mostly Cloudy,100,2013-06-20 03:56:00